Glasgow, KY

4:20 PM CDT on September 24, 2016 (GMT -0500)
Glasgow Municipal

Weather History for KGLW - April, 2014

Change the Weather History Date:

Tuesday, April 15, 2014

  Actual Average Record
Temperature  
Mean Temperature 38 °F -  
Max Temperature 45 °F 69 °F 85 °F (1992)
Min Temperature 32 °F 44 °F 29 °F (1957)
Degree Days  
Heating Degree Days 26    
Moisture  
Dew Point 28 °F    
Average Humidity 68    
Maximum Humidity 100    
Minimum Humidity 38    
Precipitation  
Precipitation 0.25 in - - ()
Sea Level Pressure  
Sea Level Pressure 30.07 in    
Wind  
Wind Speed 9 mph (NNW)    
Max Wind Speed 16 mph    
Max Gust Speed 22 mph    
Visibility 8 miles    
Events Rain , Snow    
Averages and records for this station are not official NWS values.
T = Trace of Precipitation, MM = Missing Value Source: NWS Daily Summary

Daily Weather History Graph

Daily Weather History Graph

Search for Another Location

Airport or City:

Trip Planner

Search our weather history database for the weather conditions in past years. The results will help you decide how hot, cold, wet, or windy it might be!

Date:

Astronomy

Apr. 15, 2014 Rise Set
Actual Time 6:09 AM CDT 7:18 PM CDT
Civil Twilight 5:42 AM CDT 7:45 PM CDT
Nautical Twilight 5:10 AM CDT 8:17 PM CDT
Astronomical Twilight 4:37 AM CDT 8:50 PM CDT
Moon 7:58 PM CDT (4/15) 6:17 AM CDT (4/15)
Length of Visible Light 14h 02m
Length of Day
13h 09m
Full, 100% of the Moon is Illuminated
Apr 15
Full
Apr 22
Last Quarter
Apr 29
New
May 6
First Quarter
May 14
Full

Hourly Weather History & Observations

Time (CDT) Temp. Windchill Dew Point Humidity Pressure Visibility Wind Dir Wind Speed Gust Speed Precip Events Conditions
12:15 AM 43.5 °F 38.9 °F 43.5 °F 100% 29.86 in 2.5 mi NW 8.1 mph 18.4 mph 0.01 in Rain Light Rain
12:35 AM 42.8 °F 37.0 °F 42.8 °F 100% 29.86 in 4.0 mi NW 10.4 mph - 0.02 in Rain Light Rain
12:55 AM 42.1 °F 37.7 °F 42.1 °F 100% 29.87 in 5.0 mi NW 6.9 mph - 0.02 in Rain Rain
1:15 AM 41.9 °F 35.9 °F 41.5 °F 99% 29.87 in 5.0 mi NW 10.4 mph 18.4 mph N/A Rain Light Rain
1:35 AM 41.2 °F 34.1 °F 39.9 °F 95% 29.86 in 5.0 mi NNW 12.7 mph 19.6 mph N/A Rain Rain
1:55 AM 40.5 °F 33.2 °F 39.9 °F 98% 29.88 in 4.0 mi NNW 12.7 mph 16.1 mph 0.02 in Rain Rain
2:15 AM 40.1 °F 34.1 °F 40.1 °F 100% 29.89 in 4.0 mi NNW 9.2 mph - 0.02 in Rain Light Rain
2:35 AM 39.7 °F 31.9 °F 39.7 °F 100% 29.89 in 4.0 mi NNW 13.8 mph 19.6 mph 0.03 in Rain Light Rain
2:55 AM 38.7 °F 32.4 °F 38.3 °F 99% 29.90 in 10.0 mi North 9.2 mph 19.6 mph 0.04 in Rain Rain
3:15 AM 37.9 °F 30.5 °F 37.9 °F 100% 29.88 in 7.0 mi North 11.5 mph - 0.01 in Rain Light Rain
3:35 AM 36.9 °F 29.6 °F 36.9 °F 100% 29.92 in 3.0 mi North 10.4 mph - 0.03 in   Overcast
3:55 AM 35.2 °F 27.1 °F 35.2 °F 100% 29.91 in 3.0 mi North 11.5 mph - 0.06 in Snow Light Snow
4:15 AM 33.6 °F 27.5 °F 33.6 °F 100% 29.93 in 3.0 mi North 6.9 mph - 0.02 in Snow Light Snow
4:35 AM 33.1 °F 27.7 °F 33.1 °F 100% 29.93 in 3.0 mi North 5.8 mph - 0.03 in Snow Light Snow
5:15 AM 32.9 °F - 32.9 °F 100% 29.96 in 2.5 mi Calm Calm - N/A Snow Light Snow
5:35 AM 32.9 °F - 32.9 °F 100% 29.97 in 4.0 mi Calm Calm - N/A Snow Light Snow
5:55 AM 33.1 °F - 33.1 °F 100% 29.97 in 7.0 mi Calm Calm - 0.01 in Snow Light Snow
6:15 AM - - - N/A% 29.98 in 4.0 mi NW 3.5 mph - 0.03 in   Unknown
6:35 AM - - - N/A% 30.00 in 7.0 mi NW 3.5 mph - 0.05 in Rain Light Rain
6:55 AM 33.8 °F - 33.8 °F 100% 30.00 in 5.0 mi Calm Calm - 0.06 in Rain Light Rain
7:15 AM 34.2 °F 29.0 °F 34.2 °F 100% 30.01 in 10.0 mi NW 5.8 mph - 0.01 in   Overcast
7:35 AM 35.2 °F 28.8 °F 34.0 °F 95% 30.01 in 10.0 mi NNW 8.1 mph - 0.01 in   Overcast
7:55 AM 35.4 °F 27.8 °F 33.1 °F 91% 30.03 in 10.0 mi NW 10.4 mph 18.4 mph 0.01 in   Overcast
8:15 AM 35.6 °F 27.5 °F 32.2 °F 87% 30.03 in 10.0 mi NNW 11.5 mph 16.1 mph N/A   Overcast
8:35 AM 35.4 °F 26.8 °F 31.3 °F 85% 30.04 in 10.0 mi NNW 12.7 mph 19.6 mph N/A   Overcast
8:55 AM 36.5 °F 29.7 °F 30.4 °F 78% 30.04 in 10.0 mi NNW 9.2 mph 20.7 mph N/A   Scattered Clouds
9:15 AM 38.1 °F 31.2 °F 30.4 °F 74% 30.05 in 10.0 mi NNW 10.4 mph 19.6 mph N/A   Mostly Cloudy
9:35 AM 37.8 °F 29.4 °F 28.8 °F 70% 30.05 in 10.0 mi North 13.8 mph 19.6 mph N/A   Overcast
9:55 AM 38.7 °F 30.5 °F 28.6 °F 67% 30.07 in 10.0 mi North 13.8 mph 18.4 mph N/A   Overcast
10:15 AM 39.2 °F 32.0 °F 28.0 °F 64% 30.07 in 10.0 mi North 11.5 mph 18.4 mph N/A   Overcast
10:35 AM 39.4 °F 32.7 °F 28.0 °F 64% 30.08 in 10.0 mi NW 10.4 mph - N/A   Overcast
10:55 AM 39.4 °F 31.1 °F 26.2 °F 59% 30.09 in 10.0 mi NNW 15.0 mph 19.6 mph N/A   Overcast
11:35 AM 42.4 °F 35.0 °F 27.1 °F 55% 30.09 in 10.0 mi NW 15.0 mph - N/A   Mostly Cloudy
11:55 AM 40.5 °F 33.6 °F 26.6 °F 58% 30.11 in 10.0 mi NW 11.5 mph 17.3 mph N/A   Overcast
12:35 PM 42.8 °F 35.1 °F 26.1 °F 52% 30.11 in 10.0 mi NW 16.1 mph 20.7 mph N/A   Mostly Cloudy
12:55 PM 43.0 °F 37.2 °F 24.3 °F 48% 30.11 in 10.0 mi NW 10.4 mph 17.3 mph N/A   Mostly Cloudy
1:15 PM 42.4 °F 36.5 °F 24.4 °F 49% 30.11 in 10.0 mi NNW 10.4 mph 20.7 mph N/A   Overcast
1:35 PM 43.2 °F 35.9 °F 24.3 °F 47% 30.11 in 10.0 mi North 15.0 mph 21.9 mph N/A   Overcast
1:55 PM 43.3 °F 37.7 °F 22.6 °F 44% 30.12 in 10.0 mi NNW 10.4 mph 19.6 mph N/A   Scattered Clouds
2:15 PM 43.5 °F 37.9 °F 23.0 °F 44% 30.11 in 10.0 mi NNW 10.4 mph - N/A   Mostly Cloudy
2:35 PM 44.2 °F 39.2 °F 23.9 °F 45% 30.12 in 10.0 mi NW 9.2 mph 17.3 mph N/A   Overcast
2:55 PM 44.4 °F 37.5 °F 22.8 °F 43% 30.12 in 10.0 mi NNW 15.0 mph 19.6 mph N/A   Mostly Cloudy
3:15 PM 43.5 °F 37.5 °F 21.9 °F 42% 30.13 in 10.0 mi NNW 11.5 mph 19.6 mph N/A   Mostly Cloudy
3:35 PM 44.6 °F 39.2 °F 21.7 °F 40% 30.13 in 10.0 mi NNW 10.4 mph 17.3 mph N/A   Mostly Cloudy
3:55 PM 45.1 °F 40.8 °F 20.7 °F 38% 30.13 in 10.0 mi NNW 8.1 mph 20.7 mph N/A   Scattered Clouds
4:15 PM 45.0 °F 40.1 °F 20.5 °F 38% 30.14 in 10.0 mi NW 9.2 mph - N/A   Scattered Clouds
4:35 PM 43.9 °F 38.8 °F 19.9 °F 38% 30.14 in 10.0 mi NNW 9.2 mph 17.3 mph N/A   Scattered Clouds
4:55 PM 43.7 °F 37.7 °F 20.5 °F 40% 30.15 in 10.0 mi NNW 11.5 mph 17.3 mph N/A   Clear
5:15 PM 42.6 °F 36.8 °F 20.1 °F 41% 30.16 in 10.0 mi North 10.4 mph - N/A   Clear
5:35 PM 43.3 °F 38.1 °F 19.9 °F 39% 30.16 in 10.0 mi NNW 9.2 mph - N/A   Scattered Clouds
5:55 PM 44.2 °F 39.2 °F 20.1 °F 38% 30.17 in 10.0 mi NW 9.2 mph - N/A   Mostly Cloudy
6:15 PM 43.3 °F 37.2 °F 19.4 °F 38% 30.18 in 10.0 mi NNW 11.5 mph 17.3 mph N/A   Scattered Clouds
6:35 PM 42.3 °F 36.3 °F 19.2 °F 40% 30.18 in 10.0 mi NNW 10.4 mph 16.1 mph N/A   Clear
6:55 PM 41.0 °F 35.2 °F 19.6 °F 42% 30.18 in 10.0 mi NNW 9.2 mph - N/A   Clear
7:15 PM 39.7 °F 37.6 °F 20.5 °F 46% 30.18 in 10.0 mi NW 3.5 mph - N/A   Clear
7:35 PM 38.3 °F 35.9 °F 20.8 °F 50% 30.19 in 10.0 mi NNW 3.5 mph - N/A   Clear
7:55 PM 36.9 °F 34.3 °F 21.6 °F 54% 30.19 in 10.0 mi NNW 3.5 mph - N/A   Clear
8:15 PM 34.9 °F 32.0 °F 23.0 °F 62% 30.19 in 10.0 mi North 3.5 mph - N/A   Clear
8:35 PM 34.3 °F 31.4 °F 23.2 °F 64% 30.20 in 10.0 mi NNW 3.5 mph - N/A   Clear
8:55 PM 34.3 °F 31.4 °F 22.6 °F 62% 30.21 in 10.0 mi NNW 3.5 mph - N/A   Clear
9:15 PM 34.3 °F 31.4 °F 22.6 °F 62% 30.22 in 10.0 mi NNW 3.5 mph - N/A   Clear
9:35 PM 33.3 °F 30.2 °F 22.8 °F 66% 30.22 in 10.0 mi NNW 3.5 mph - N/A   Clear
9:55 PM 32.9 °F 28.5 °F 22.8 °F 66% 30.23 in 10.0 mi North 4.6 mph - N/A   Clear
10:15 PM 33.6 °F 27.5 °F 22.1 °F 63% 30.22 in 10.0 mi North 6.9 mph - N/A   Clear
10:35 PM 33.8 °F 27.7 °F 21.7 °F 61% 30.22 in 10.0 mi North 6.9 mph - N/A   Clear
10:55 PM 33.6 °F 29.4 °F 21.6 °F 61% 30.23 in 10.0 mi North 4.6 mph - N/A   Clear
11:15 PM 33.3 °F 30.2 °F 21.6 °F 62% 30.23 in 10.0 mi North 3.5 mph - N/A   Clear
11:35 PM 32.9 °F 29.8 °F 21.2 °F 62% 30.24 in 10.0 mi North 3.5 mph - N/A   Clear
11:55 PM 32.5 °F - 21.6 °F 64% 30.25 in 10.0 mi Calm Calm - N/A   Clear